This is the latest recevied weather packets stored in our database for station/object KI4HRG. If no packets are shown the sender has not sent any weather packets the latest 10 day(s).
| Time | Temp. | Humidity | Pressure | Rain* | Wind** | Luminosity | Snow |
|---|---|---|---|---|---|---|---|
| 1777896623 | 10° C | 96% | 1017.9 hPa | 0 mm | - | 43 W/m² | - |
| 1777896320 | 9.44° C | 97% | 1017.7 hPa | 0 mm | - | 47 W/m² | - |
| 1777896019 | 10° C | 98% | 1017.5 hPa | 0 mm | - | 47 W/m² | - |
| 1777895716 | 9.44° C | 99% | 1017.6 hPa | 0 mm | - | 48 W/m² | - |
| 1777895413 | 8.89° C | 99% | 1017.7 hPa | 0 mm | - | 49 W/m² | - |
| 1777895111 | 8.33° C | 99% | 1017.9 hPa | 0 mm | - | 45 W/m² | - |
| 1777894808 | 7.78° C | 99% | 1017.7 hPa | 0 mm | - | 40 W/m² | - |
| 1777894504 | 7.78° C | 99% | 1017.7 hPa | 0 mm | - | 32 W/m² | - |
| 1777894202 | 7.22° C | 99% | 1017.6 hPa | 0 mm | - | 24 W/m² | - |
| 1777893898 | 7.22° C | 99% | 1017.5 hPa | 0 mm | - | 18 W/m² | - |
| 1777893595 | 7.22° C | 99% | 1017.5 hPa | 0 mm | - | 13 W/m² | - |
| 1777893291 | 7.22° C | 99% | 1017.4 hPa | 0 mm | - | 8 W/m² | - |
| 1777892988 | 7.22° C | 99% | 1017.3 hPa | 0 mm | - | 6 W/m² | - |
| 1777892685 | 6.67° C | 99% | 1017.2 hPa | 0 mm | - | 3 W/m² | - |
| 1777892381 | 6.67° C | 99% | 1017.3 hPa | 0 mm | - | 1 W/m² | - |
| 1777892076 | 6.67° C | 99% | 1017.3 hPa | 0 mm | - | 0 W/m² | - |
| 1777891774 | 6.67° C | 99% | 1017.2 hPa | 0 mm | - | 0 W/m² | - |
| 1777891471 | 7.22° C | 99% | 1017.3 hPa | 0 mm | - | 0 W/m² | - |
| 1777891166 | 7.22° C | 99% | 1017.3 hPa | 0 mm | - | 0 W/m² | - |
| 1777890861 | 7.22° C | 99% | 1017.1 hPa | 0 mm | - | 0 W/m² | - |
| 1777890557 | 7.22° C | 99% | 1017.1 hPa | 0 mm | - | 0 W/m² | - |
| 1777890252 | 7.22° C | 99% | 1017.1 hPa | 0 mm | - | 0 W/m² | - |
| 1777889949 | 7.22° C | 99% | 1017.3 hPa | 0 mm | - | 0 W/m² | - |
| 1777889647 | 7.22° C | 99% | 1017.4 hPa | 0 mm | - | 0 W/m² | - |
| 1777889344 | 7.22° C | 99% | 1017.3 hPa | 0 mm | - | 0 W/m² | - |
* Rain latest hour (hover to see other rain measurements)
** Current wind speed in m/s (hover to see current wind gust speed)